Location: Alpha Ridge Park
(39.3209°N, 76.9128°W)
Time: 14:29:02
(UTC-04:00)

Courier 1B Rocket - Visible Passes

Search period start: 21 May 2019 00:00
Search period end: 31 May 2019 00:00
Orbit: 920 x 1202 km, 28.2° (Epoch: 20 May)

Date Brightness Start Highest point End Pass type
(mag) Time Alt. Az. Time Alt. Az. Time Alt. Az.
21 May 6.2 20:39:23 10° WSW 20:46:12 35° S 20:52:44 10° SE visible
21 May 6.5 22:33:30 10° WSW 22:39:02 22° SSW 22:39:47 22° SSW visible
22 May 6.4 21:31:52 10° WSW 21:38:08 28° SSW 21:42:23 16° SSE visible
22 May 7.3 23:27:55 10° SW 23:28:44 11° SW 23:28:44 11° SW visible
23 May 6.8 22:25:10 10° WSW 22:29:53 18° SSW 22:31:20 17° S visible
24 May 6.7 21:23:14 10° WSW 21:29:00 23° SSW 21:33:56 12° SSE visible
25 May 7.1 22:17:31 10° SW 22:20:41 13° SSW 22:22:54 11° S visible
26 May 7.0 21:14:54 10° WSW 21:19:51 18° SSW 21:24:41 10° SSE visible
28 May 7.3 21:07:16 10° SW 21:10:38 13° SSW 21:13:59 10° S visible
